Regional Weather Roundup
Issued by NWS Jackson, KY

Home | Current Version | Previous Version | Text Only | Print | Product List | Glossary On
Versions: 1 2 3 4 5 6 7 8 9 10 11 12 13 14 15 16 17 18 19 20 21 22 23 24 25 26 27 28
000
ASUS43 KJKL 060610
RWRJKL

EAST KENTUCKY HOURLY WEATHER ROUNDUP
NATIONAL WEATHER SERVICE JACKSON KY
200 AM EDT FRI MAY 06 2016

NOTE: "FAIR" INDICATES FEW OR NO CLOUDS BELOW 12,000 FEET WITH
NO SIGNIFICANT WEATHER AND/OR OBSTRUCTIONS TO VISIBILITY.

* THESE REPORTS ARE NOT UNDER NWS QUALITY CONTROL AND MAY NOT
  REPORT WEATHER SUCH AS PRECIPITATION AND FOG.

KYZ079-080-083-085-087-088-110-112-115-119-120-060700
...EASTERN KENTUCKY...

CITY           SKY/WX    TMP DP  RH WIND       PRES   REMARKS
JACKSON        CLEAR     45  43  93 W7        29.87S
6HR MIN TEMP:  45; 6HR MAX TEMP:  50; 6HR PCP: TRACE;

LONDON         CLEAR     45  42  89 W3        29.91R
6HR MIN TEMP:  45; 6HR MAX TEMP:  50;

SOMERSET*      MOCLDY    43  43 100 CALM      29.94S
MONTICELLO*    CLOUDY    47  44  90 W10       29.95S
6HR MIN TEMP:  46; 6HR MAX TEMP:  52;

WILLIAMSBURG*  CLEAR     45  45 100 SW3       29.91F
MIDDLESBORO*   CLOUDY    50  45  83 NW6       29.90S
6HR MIN TEMP:  49; 6HR MAX TEMP:  51;

HARLAN APT*    CLOUDY    48  43  81 SW5       29.88S
HAZARD APT*    PTCLDY    46  46 100 NW3       29.88S
BLACK MTN*       N/A     39  41 100 N13         N/A  WCI  32
PIKE CO APT*     N/A     46  45  99 W7        29.84S
BIG SANDY APT* CLEAR     47  46  95 W5        29.85R
6HR MIN TEMP:  47; 6HR MAX TEMP:  52;

MOREHEAD APT*  PTCLDY    45  43  93 NW6       29.90S FOG
$$

KYZ035-036-041-042-044-050-067-078-099-060700
...CENTRAL KENTUCKY...

CITY           SKY/WX    TMP DP  RH WIND       PRES   REMARKS
MT STERLING*   CLEAR     46  45  93 NW5       29.91R
FLEMING/MASON* CLOUDY    45  44  95 W5        29.89S FOG
DANVILLE*      CLOUDY    50  45  81 NW8       29.93S
RICHMOND*      CLOUDY    45  43  93 W5        29.90S
LEXINGTON      CLOUDY    50  46  86 NW6       29.91S
6HR MIN TEMP:  47; 6HR MAX TEMP:  51;

FRANKFORT      PTCLDY    51  45  79 NW6       29.91S
6HR MIN TEMP:  49; 6HR MAX TEMP:  52;

LOUISVILLE     CLEAR     54  45  71 NW9       29.95R
6HR MIN TEMP:  53; 6HR MAX TEMP:  59;

LEBANON*         N/A     48  45  87 W3        29.94S
BOWLING GREEN  PTCLDY    51  45  79 NW5       29.97S
6HR MIN TEMP:  49; 6HR MAX TEMP:  56;

$$

KYZ091>093-OHZ055-061-077-WVZ005-015-034-035-042-060700
...SOUTHERN OHIO/WEST VIRGINIA...

CITY           SKY/WX    TMP DP  RH WIND       PRES   REMARKS
COVINGTON      PTCLDY    50  45  83 NW8       29.92R
COLUMBUS       CLOUDY    51  42  71 N9        29.85F
DAYTON         PTCLDY    48  41  76 NW9       29.92R
WILMINGTON     CLEAR     49  38  65 NW9       29.89S
HUNTINGTON       N/A     49  44  83 W5        29.83R
CHARLESTON     CLOUDY    51  47  86 CALM      29.79S
PINEVILLE*     LGT RAIN  49  46  90 MISG      29.84R
BECKLEY        RAIN      46  44  93 N6        29.76S FOG
$$

VAZ002-007-008-TNZ017-027-036-066-071-060700
...SOUTHWEST VIRGINIA/EAST TENNESSEE...

CITY           SKY/WX    TMP DP  RH WIND       PRES   REMARKS
WISE*          CLOUDY    45  45 100 NW7G16    29.84S
BRISTOL        CLOUDY    48  44  86 W7        29.83S
MORRISTOWN*    CLOUDY    48  43  81 W8        29.88R
SEVIERVILLE*   CLOUDY    48  39  71 W5        29.90S
KNOXVILLE      CLOUDY    49  43  80 SW7       29.91S
OAK RIDGE      PTCLDY    47  41  80 W3        29.92S
CROSSVILLE     CLEAR     45  41  86 W6        29.93S
NASHVILLE      CLEAR     49  43  80 CALM      29.98S
$$

...KEY TO REMARKS...
VSB - VISIBILITY IN MILES
WCI - WIND CHILL INDEX
HX  - HEAT INDEX

$$




USA.gov is the U.S. government's official web portal to all federal, state and local government web resources and services.